Regional Weather Roundup
Issued by NWS

Home | Current Version | Previous Version | Text Only | Print | Product List | Glossary Off
Versions: 1 2 3 4 5 6 7 8 9 10 11 12 13 14 15 16 17 18 19 20 21 22 23 24 25 26 27 28 29 30 31 32 33 34 35 36 37 38 39 40 41 42 43 44 45 46 47 48 49 50

000
ASUS43 KFSD 020610
RWRSD

WEATHER ROUNDUP FOR SOUTH DAKOTA
NATIONAL WEATHER SERVICE SIOUX FALLS SD
100 AM CDT WED SEP 02 2015

NOTE: "FAIR" INDICATES FEW OR NO CLOUDS BELOW 12,000 FEET WITH NO
SIGNIFICANT WEATHER AND/OR OBSTRUCTIONS TO VISIBILITY.


SDZ001>005-009-010-012>017-020700-
NORTHWEST AND NORTH CENTRAL SOUTH DAKOTA

CITY           SKY/WX    TMP DP  RH WIND       PRES   REMARKS
BUFFALO          N/A     69  54  58 S6        29.79S
FAITH            N/A     70  54  56 S3        29.83S
MOBRIDGE       CLEAR     67  66  97 SE6       29.78S
$$

SDZ012>016-024>037-041>051-057-063-072>074-020700-
SOUTHWEST AND SOUTH CENTRAL SOUTH DAKOTA

CITY           SKY/WX    TMP DP  RH WIND       PRES   REMARKS
RAPID CTY ARPT CLEAR     62  53  72 NW7       29.87F
PIERRE         CLEAR     71  68  90 SE10      29.77F
CUSTER         CLEAR     57  45  64 CALM      30.05S
ELLSWORTH AFB  CLEAR     63  54  72 W7        29.87F
PHILIP         CLEAR     60  59  96 W6        29.80S
PINE RIDGE     CLEAR     55  46  71 CALM      29.89F
WINNER           N/A     77  62  59 S14       29.81S
$$

SDZ004>011-016>023-039-040-020700-
NORTHEAST SOUTH DAKOTA

CITY           SKY/WX    TMP DP  RH WIND       PRES   REMARKS
ABERDEEN       CLEAR     64  61  90 SE6       29.83S
WATERTOWN      FAIR      69  62  78 SE10      29.88R
BROOKINGS      FAIR      66  63  88 E9        29.90R
SISSETON         N/A     66  66 100 S8        29.85R
$$

SDZ017-020-022-023-036>040-048>070-020700-
SOUTHEAST SOUTH DAKOTA

CITY           SKY/WX    TMP DP  RH WIND       PRES   REMARKS
SIOUX FALLS    FAIR      74  70  87 S8        29.85F
HURON          CLEAR     69  68  96 SE7       29.81F FOG
CHAMBERLAIN    CLEAR     68  67  98 E6        29.81S
MITCHELL       CLEAR     68  67  96 E3        29.82S FOG
YANKTON        FAIR      73  66  78 S5        29.83S
$$

ABBREVIATIONS USED IN REMARKS
   TC - TEMPERATURE IN CELSIUS
  WCI - WIND CHILL INDEX
   HX - HEAT INDEX
  VSB - VISIBILITY




USA.gov is the U.S. government's official web portal to all federal, state and local government web resources and services.